Starlink 2646

operational
NORAD ID: 48642 Int'l Des: 2021-044 Owner: SPXS Country: US Constellation: starlink
LEOCIRCULARSTARLINK_TYPE

Starlink 2646について

説明を読み込み中...

リアルタイム位置

3D地球を読み込み中...

次回通過

高度履歴

Altitude vs Time

uPlot chart will show altitude changes over time

軌道要素

1 48642U 21044E 25350.66488889 .00001475 00000-0 11789-3 0 9993
2 48642 53.0547 134.3441 0001433 88.5677 271.5477 15.06400763251195
Epoch: Dec 16, 2025 • Age: 21 hours

現在のステータス

高度 550.0 km
速度 7.59 km/s
衛星直下点 -9.30°S, 152.04°W
打ち上げ日 May 26, 2021
運用期間 4.5 years
タイプ internet

技術仕様

分類 Payload
質量 260.00 kg
乾燥質量 248.00 kg
総質量 260.00 kg
長さ 0.20 m
直径 2.80 m
スパン 9.00 m
形状 Box + pan
製造者 SPXS
バスタイプ Starlink
フェーズステータス In Orbit
所有者/国 SPXS/US

大規模コンステレーション

Loading constellations...